Location: Makakahi
(40.6833°S, 175.6000°E)
Time: 07:20:44
(UTC+00:00)

DMSP B5D2-8 - Pass Details

Date: 15 January 2026
Orbit: 830 x 841 km, 98.8° (Epoch: 10 February)

Event Time Altitude Azimuth Distance (km) Brightness Sun altitude
Rises 16:19:23 0° 74° (ENE) 3,382 8.4 -8.1°
Reaches altitude 10° 16:23:35 10° 106° (ESE) 2,460 8.5 -7.4°
Maximum altitude 16:25:13 11° 123° (ESE) 2,366 8.8 -7.2°
Drops below altitude 10° 16:26:52 10° 141° (SE) 2,468 8.7 -6.9°
Sets 16:31:05 0° 172° (S) 3,413 8.6 -6.3°
